Location: Pardubice
(50.0618°N, 15.7556°E)
Time: 20:07:03
(UTC+02:00)

ISS - Pass Details

Date: 31 May 2018
Orbit: 402 x 406 km, 51.6° (Epoch: 22 June)

Event Time Altitude Azimuth Distance (km) Brightness Sun altitude
Rises 00:03:06 0° 286° (WNW) 2,323 0.4 -17.2°
Reaches altitude 10° 00:05:19 10° 276° (W) 1,460 -0.8 -17.2°
Enters shadow 00:07:36 28° 236° (SW) 798 -2.6 -17.3°
